Simultaneous Nadir Overpasses (SNOs) Predictions

Prediction of SNOs between LANDSAT-8 and NOAA-19 Satellite Orbit:

Table of predicted SNOs for the next 14.0 days since TLE Epoch: 5/10/2025
Index Date (LANDSAT-8) Time (LANDSAT-8) Lat,Lon (LANDSAT-8) SZA (LANDSAT-8 ) Date (NOAA-19) Time (NOAA-19) Lat,Lon (NOAA-19) SZA (NOAA-19 ) Distance(km) Time Diff (sec)
1 05/10/2025 21:57:06 79.02,-128.56 61.92 05/10/2025 21:57:10 79.02,-128.51 61.93 1.10 4
2 05/13/2025 04:20:23 78.79, 134.34 61.05 05/13/2025 04:19:24 78.79, 134.33 61.03 0.29 59
3 05/13/2025 05:09:44 -79.04, -56.56 118.62 05/13/2025 05:10:17 -79.04, -56.62 118.62 1.50 33
4 05/15/2025 11:33:00 -78.85,-153.47 119.42 05/15/2025 11:32:30 -78.86,-153.41 119.42 1.51 30
5 05/15/2025 12:22:20 79.09, 15.57 60.90 05/15/2025 12:23:19 79.09, 15.56 60.92 0.18 59
6 05/17/2025 18:45:36 78.88, -81.43 60.10 05/17/2025 18:45:32 78.88, -81.45 60.10 0.32 4
7 05/20/2025 01:08:52 78.67,-178.45 59.32 05/20/2025 01:07:45 78.67,-178.44 59.31 0.34 67
8 05/20/2025 01:58:11 -79.01, -8.87 120.23 05/20/2025 01:58:37 -79.01, -8.74 120.20 2.96 26
9 05/22/2025 08:21:28 -78.74,-106.20 121.05 05/22/2025 08:20:52 -78.74,-106.16 121.05 0.96 36



Historial Predications of SNOs between LANDSAT-8 and NOAA-19
